| time (UTC) | temp C | wind direction | speed KPH | gust KPH | rain 1hr cm | rain 24hr cm | rain mn cm | humidity % | barometer mb |
| 20260506165402 | 13 | 113 | 3.2 | 17.7 | 0.00 | 0.00 | 0.00 | 48 | 1012.9 |
| 20260506164902 | 13 | 116 | 3.2 | 17.7 | 0.00 | 0.00 | 0.00 | 47 | 1013.1 |
| 20260506164401 | 13 | 116 | 4.8 | 17.7 | 0.00 | 0.00 | 0.00 | 47 | 1012.9 |
| 20260506163901 | 13 | 125 | 3.2 | 17.7 | 0.00 | 0.00 | 0.00 | 47 | 1012.9 |
| 20260506163401 | 13 | 135 | 1.6 | 17.7 | 0.00 | 0.00 | 0.00 | 48 | 1013.1 |
| 20260506162900 | 13 | 142 | 1.6 | 17.7 | 0.00 | 0.00 | 0.00 | 47 | 1012.9 |
| 20260506162359 | 13 | 119 | 3.2 | 17.7 | 0.00 | 0.00 | 0.00 | 46 | 1012.7 |
| 20260506161900 | 13 | 141 | 3.2 | 17.7 | 0.00 | 0.00 | 0.00 | 46 | 1012.9 |
| 20260506161358 | 13 | 95 | 3.2 | 17.7 | 0.00 | 0.00 | 0.00 | 46 | 1013.0 |
| 20260506160859 | 13 | 111 | 3.2 | 17.7 | 0.00 | 0.00 | 0.00 | 45 | 1012.8 |
| 20260506160359 | 13 | 95 | 3.2 | 17.7 | 0.00 | 0.00 | 0.00 | 44 | 1012.9 |
| 20260506155858 | 13 | 114 | 3.2 | 17.7 | 0.00 | 0.00 | 0.00 | 43 | 1013.0 |
| 20260506155358 | 13 | 102 | 3.2 | 17.7 | 0.00 | 0.00 | 0.00 | 43 | 1012.9 |
| 20260506154341 | 13 | 116 | 4.8 | 17.7 | 0.00 | 0.00 | 0.00 | 41 | 1012.8 |
| 20260506153841 | 13 | 111 | 4.8 | 17.7 | 0.00 | 0.00 | 0.00 | 41 | 1012.9 |
| 20260506153340 | 13 | 120 | 4.8 | 17.7 | 0.00 | 0.00 | 0.00 | 41 | 1012.7 |
| 20260506152839 | 13 | 72 | 1.6 | 17.7 | 0.00 | 0.00 | 0.00 | 40 | 1013.0 |
| 20260506152339 | 13 | 111 | 3.2 | 17.7 | 0.00 | 0.00 | 0.00 | 41 | 1012.8 |
| 20260506151837 | 13 | 91 | 3.2 | 17.7 | 0.00 | 0.00 | 0.00 | 40 | 1012.9 |
| 20260506151337 | 13 | 87 | 3.2 | 17.7 | 0.00 | 0.00 | 0.00 | 39 | 1012.9 |
| 20260506150837 | 13 | 91 | 0.0 | 17.7 | 0.00 | 0.00 | 0.00 | 38 | 1012.9 |
| 20260506150337 | 13 | 57 | 3.2 | 17.7 | 0.00 | 0.00 | 0.00 | 37 | 1012.8 |
| 20260506145836 | 13 | 109 | 3.2 | 17.7 | 0.00 | 0.00 | 0.00 | 37 | 1012.7 |
| 20260506145336 | 13 | 105 | 1.6 | 17.7 | 0.00 | 0.00 | 0.00 | 36 | 1012.9 |
| 20260506144835 | 13 | 148 | 3.2 | 17.7 | 0.00 | 0.00 | 0.00 | 37 | 1012.9 |
| 20260506144335 | 13 | 96 | 0.0 | 17.7 | 0.00 | 0.00 | 0.00 | 36 | 1012.9 |
| 20260506143835 | 13 | 104 | 0.0 | 17.7 | 0.00 | 0.00 | 0.00 | 36 | 1013.0 |
| 20260506143334 | 13 | 112 | 4.8 | 17.7 | 0.00 | 0.00 | 0.00 | 36 | 1012.5 |
| 20260506142834 | 13 | 90 | 1.6 | 17.7 | 0.00 | 0.00 | 0.00 | 36 | 1012.7 |
| 20260506142333 | 13 | 70 | 3.2 | 17.7 | 0.00 | 0.00 | 0.00 | 36 | 1012.9 |
| 20260506141834 | 13 | 96 | 3.2 | 17.7 | 0.00 | 0.00 | 0.00 | 37 | 1012.9 |
| 20260506140818 | 14 | 102 | 3.2 | 17.7 | 0.00 | 0.00 | 0.00 | 34 | 1013.1 |
| 20260506140317 | 14 | 27 | 1.6 | 17.7 | 0.00 | 0.00 | 0.00 | 34 | 1012.6 |
| 20260506135817 | 14 | 50 | 1.6 | 17.7 | 0.00 | 0.00 | 0.00 | 33 | 1012.7 |
| 20260506135317 | 14 | 58 | 1.6 | 17.7 | 0.00 | 0.00 | 0.00 | 35 | 1012.7 |
| 20260506134816 | 14 | 73 | 0.0 | 17.7 | 0.00 | 0.00 | 0.00 | 34 | 1012.9 |
| 20260506134315 | 14 | 81 | 1.6 | 17.7 | 0.00 | 0.00 | 0.00 | 34 | 1012.8 |
| 20260506133814 | 14 | 148 | 1.6 | 17.7 | 0.00 | 0.00 | 0.00 | 33 | 1012.6 |
| 20260506133313 | 14 | 43 | 1.6 | 17.7 | 0.00 | 0.00 | 0.00 | 33 | 1012.7 |
| 20260506132258 | 14 | 119 | 3.2 | 17.7 | 0.00 | 0.00 | 0.00 | 34 | 1012.9 |
| 20260506131758 | 14 | 168 | 0.0 | 17.7 | 0.00 | 0.00 | 0.00 | 33 | 1012.7 |
| 20260506131258 | 14 | 166 | 1.6 | 17.7 | 0.00 | 0.00 | 0.00 | 32 | 1012.8 |
| 20260506130758 | 14 | 70 | 1.6 | 17.7 | 0.00 | 0.00 | 0.00 | 33 | 1012.7 |
| 20260506130257 | 14 | 118 | 4.8 | 17.7 | 0.00 | 0.00 | 0.00 | 33 | 1012.5 |
| 20260506125241 | 14 | 120 | 4.8 | 17.7 | 0.00 | 0.00 | 0.00 | 32 | 1013.0 |
| 20260506124740 | 14 | 97 | 1.6 | 17.7 | 0.00 | 0.00 | 0.00 | 33 | 1013.1 |
| 20260506124240 | 13 | 215 | 1.6 | 17.7 | 0.00 | 0.00 | 0.00 | 32 | 1012.5 |
| 20260506123225 | 14 | 212 | 3.2 | 17.7 | 0.00 | 0.00 | 0.00 | 30 | 1012.8 |
| 20260506122724 | 15 | 134 | 3.2 | 17.7 | 0.00 | 0.00 | 0.00 | 30 | 1013.1 |
| 20260506122224 | 15 | 143 | 1.6 | 17.7 | 0.00 | 0.00 | 0.00 | 30 | 1012.9 |
| 20260506121724 | 15 | 53 | 0.0 | 17.7 | 0.00 | 0.00 | 0.00 | 31 | 1012.5 |
| 20260506121224 | 15 | 47 | 0.0 | 17.7 | 0.00 | 0.00 | 0.00 | 31 | 1012.6 |
| 20260506120724 | 15 | 75 | 0.0 | 17.7 | 0.00 | 0.00 | 0.00 | 31 | 1012.9 |
| 20260506120223 | 15 | 95 | 3.2 | 17.7 | 0.00 | 0.00 | 0.00 | 31 | 1012.9 |
| 20260506115722 | 15 | 85 | 3.2 | 17.7 | 0.00 | 0.00 | 0.00 | 31 | 1012.7 |
| 20260506115221 | 15 | 93 | 3.2 | 17.7 | 0.00 | 0.00 | 0.00 | 29 | 1012.9 |
| 20260506114720 | 16 | 49 | 3.2 | 17.7 | 0.00 | 0.00 | 0.00 | 29 | 1012.8 |
| 20260506114220 | 15 | 43 | 1.6 | 17.7 | 0.00 | 0.00 | 0.00 | 31 | 1013.0 |
| 20260506113204 | 15 | 98 | 1.6 | 17.7 | 0.00 | 0.00 | 0.00 | 29 | 1012.9 |
| 20260506112704 | 15 | 31 | 1.6 | 17.7 | 0.00 | 0.00 | 0.00 | 31 | 1013.2 |
| 20260506112203 | 15 | 47 | 3.2 | 17.7 | 0.00 | 0.00 | 0.00 | 29 | 1012.9 |
| 20260506111703 | 14 | 51 | 3.2 | 17.7 | 0.00 | 0.00 | 0.00 | 30 | 1013.2 |
| 20260506111202 | 14 | 72 | 1.6 | 17.7 | 0.00 | 0.00 | 0.00 | 29 | 1013.2 |
| 20260506110701 | 15 | 10 | 3.2 | 17.7 | 0.00 | 0.00 | 0.00 | 29 | 1013.1 |
| 20260506110200 | 15 | 87 | 1.6 | 17.7 | 0.00 | 0.00 | 0.00 | 30 | 1013.3 |
| 20260506105659 | 14 | 88 | 3.2 | 17.7 | 0.00 | 0.00 | 0.00 | 30 | 1013.4 |
| 20260506105158 | 14 | 151 | 3.2 | 17.7 | 0.00 | 0.00 | 0.00 | 28 | 1013.3 |
| 20260506104658 | 14 | 80 | 3.2 | 17.7 | 0.00 | 0.00 | 0.00 | 28 | 1013.3 |
| 20260506104158 | 14 | 123 | 4.8 | 17.7 | 0.00 | 0.00 | 0.00 | 27 | 1013.2 |
| 20260506103141 | 14 | 99 | 1.6 | 17.7 | 0.00 | 0.00 | 0.00 | 31 | 1013.1 |
| 20260506102641 | 13 | 28 | 1.6 | 17.7 | 0.00 | 0.00 | 0.00 | 31 | 1013.5 |
| 20260506102140 | 13 | 28 | 3.2 | 17.7 | 0.00 | 0.00 | 0.00 | 29 | 1013.5 |
| 20260506101124 | 13 | 91 | 1.6 | 17.7 | 0.00 | 0.00 | 0.00 | 30 | 1013.7 |
| 20260506100623 | 13 | 65 | 3.2 | 17.7 | 0.00 | 0.00 | 0.00 | 32 | 1013.8 |
| 20260506100123 | 13 | 330 | 3.2 | 17.7 | 0.00 | 0.00 | 0.00 | 29 | 1013.5 |
| 20260506095623 | 13 | 22 | 4.8 | 17.7 | 0.00 | 0.00 | 0.00 | 30 | 1013.6 |
| 20260506094606 | 14 | 70 | 1.6 | 17.7 | 0.00 | 0.00 | 0.00 | 30 | 1013.6 |
| 20260506093034 | 13 | 136 | 1.6 | 17.7 | 0.00 | 0.00 | 0.00 | 31 | 1013.8 |
| 20260506092534 | 13 | 95 | 8.0 | 17.7 | 0.00 | 0.00 | 0.00 | 31 | 1013.9 |
| 20260506092033 | 13 | 121 | 3.2 | 17.7 | 0.00 | 0.00 | 0.00 | 31 | 1013.6 |
| 20260506091016 | 13 | 2 | 3.2 | 17.7 | 0.00 | 0.00 | 0.00 | 31 | 1013.8 |
| 20260506090515 | 13 | 68 | 1.6 | 17.7 | 0.00 | 0.00 | 0.00 | 33 | 1014.2 |
| 20260506090014 | 13 | 33 | 1.6 | 17.7 | 0.00 | 0.00 | 0.00 | 32 | 1014.1 |
| 20260506085514 | 13 | 18 | 3.2 | 17.7 | 0.00 | 0.00 | 0.00 | 31 | 1014.0 |
| 20260506085013 | 13 | 12 | 1.6 | 17.7 | 0.00 | 0.00 | 0.00 | 33 | 1014.3 |
| 20260506084512 | 12 | 4 | 3.2 | 17.7 | 0.00 | 0.00 | 0.00 | 34 | 1014.0 |
| 20260506084012 | 12 | 11 | 1.6 | 17.7 | 0.00 | 0.00 | 0.00 | 33 | 1014.3 |
| 20260506083512 | 12 | 100 | 0.0 | 17.7 | 0.00 | 0.00 | 0.00 | 34 | 1014.2 |
| 20260506083012 | 12 | 81 | 3.2 | 17.7 | 0.00 | 0.00 | 0.00 | 32 | 1014.1 |
| 20260506082512 | 12 | 59 | 3.2 | 17.7 | 0.00 | 0.00 | 0.00 | 33 | 1014.1 |
| 20260506081455 | 12 | 32 | 4.8 | 17.7 | 0.00 | 0.00 | 0.00 | 33 | 1014.2 |
| 20260506080955 | 12 | 26 | 4.8 | 17.7 | 0.00 | 0.00 | 0.00 | 33 | 1014.3 |
| 20260506080454 | 11 | 101 | 3.2 | 17.7 | 0.00 | 0.00 | 0.00 | 33 | 1014.4 |
| 20260506073451 | 11 | 48 | 4.8 | 17.7 | 0.00 | 0.00 | 0.00 | 31 | 1014.8 |
| 20260506072951 | 11 | 75 | 1.6 | 17.7 | 0.00 | 0.00 | 0.00 | 30 | 1014.4 |
| 20260506072451 | 11 | 55 | 1.6 | 17.7 | 0.00 | 0.00 | 0.00 | 31 | 1014.5 |
| 20260506071434 | 10 | 8 | 1.6 | 17.7 | 0.00 | 0.00 | 0.00 | 31 | 1014.4 |
| 20260506070933 | 10 | 26 | 4.8 | 17.7 | 0.00 | 0.00 | 0.00 | 30 | 1014.6 |
| 20260506070433 | 10 | 19 | 3.2 | 17.7 | 0.00 | 0.00 | 0.00 | 29 | 1014.2 |
| 20260506062430 | 8 | 54 | 0.0 | 19.3 | 0.00 | 0.00 | 0.00 | 46 | 1014.5 |
| 20260506061929 | 8 | 336 | 1.6 | 19.3 | 0.00 | 0.00 | 0.00 | 45 | 1014.3 |
| 20260506061428 | 8 | 336 | 0.0 | 19.3 | 0.00 | 0.00 | 0.00 | 46 | 1014.5 |
| 20260506060928 | 7 | 336 | 0.0 | 19.3 | 0.00 | 0.00 | 0.00 | 48 | 1014.6 |
| 20260506060428 | 7 | 336 | 0.0 | 19.3 | 0.00 | 0.00 | 0.00 | 47 | 1014.6 |
| 20260506051408 | 2 | 336 | 0.0 | 19.3 | 0.00 | 0.00 | 0.00 | 62 | 1014.7 |
| 20260506050908 | 2 | 336 | 0.0 | 19.3 | 0.00 | 0.00 | 0.00 | 63 | 1015.0 |
| 20260506050408 | 2 | 336 | 0.0 | 19.3 | 0.00 | 0.00 | 0.00 | 63 | 1014.8 |
| 20260506044352 | 1 | 336 | 0.0 | 19.3 | 0.00 | 0.00 | 0.00 | 70 | 1015.0 |
| 20260506043851 | 0 | 336 | 0.0 | 19.3 | 0.00 | 0.00 | 0.00 | 71 | 1015.0 |
| 20260506042835 | 0 | 336 | 0.0 | 19.3 | 0.00 | 0.00 | 0.00 | 73 | 1014.9 |
| 20260506042335 | 0 | 336 | 0.0 | 19.3 | 0.00 | 0.00 | 0.00 | 75 | 1014.9 |
| 20260506041319 | -1 | 336 | 0.0 | 19.3 | 0.00 | 0.00 | 0.00 | 76 | 1015.0 |
| 20260506040303 | -1 | 336 | 0.0 | 19.3 | 0.00 | 0.00 | 0.00 | 78 | 1015.1 |
| 20260506035803 | -1 | 336 | 0.0 | 19.3 | 0.00 | 0.00 | 0.00 | 79 | 1015.1 |
| 20260506034747 | -1 | 336 | 0.0 | 19.3 | 0.00 | 0.00 | 0.00 | 80 | 1015.1 |
| 20260506034247 | -1 | 336 | 0.0 | 19.3 | 0.00 | 0.00 | 0.00 | 80 | 1015.1 |
| 20260506033746 | -1 | 336 | 0.0 | 19.3 | 0.00 | 0.00 | 0.00 | 80 | 1015.3 |
| 20260506033246 | -1 | 336 | 0.0 | 19.3 | 0.00 | 0.00 | 0.00 | 80 | 1015.4 |
| 20260506032746 | -1 | 336 | 0.0 | 19.3 | 0.00 | 0.00 | 0.00 | 80 | 1015.2 |
| 20260506032246 | -1 | 336 | 0.0 | 19.3 | 0.00 | 0.00 | 0.00 | 80 | 1015.3 |
| 20260506031231 | -1 | 336 | 0.0 | 19.3 | 0.00 | 0.00 | 0.00 | 80 | 1015.2 |
| 20260506030731 | -1 | 336 | 0.0 | 19.3 | 0.00 | 0.00 | 0.00 | 79 | 1015.4 |
| 20260506030230 | -1 | 336 | 0.0 | 19.3 | 0.00 | 0.00 | 0.00 | 79 | 1015.3 |
| 20260506025729 | -1 | 336 | 0.0 | 19.3 | 0.00 | 0.00 | 0.00 | 78 | 1015.3 |
| 20260506025229 | -1 | 336 | 0.0 | 19.3 | 0.00 | 0.00 | 0.00 | 78 | 1015.2 |
| 20260506024729 | -1 | 336 | 0.0 | 19.3 | 0.00 | 0.00 | 0.00 | 77 | 1015.4 |
| 20260506023158 | -1 | 336 | 0.0 | 19.3 | 0.00 | 0.00 | 0.00 | 78 | 1015.3 |
| 20260506022658 | -1 | 336 | 0.0 | 19.3 | 0.00 | 0.00 | 0.00 | 78 | 1015.4 |
| 20260506022158 | -1 | 336 | 0.0 | 19.3 | 0.00 | 0.00 | 0.00 | 78 | 1015.4 |
| 20260506021141 | -1 | 336 | 0.0 | 19.3 | 0.00 | 0.00 | 0.00 | 78 | 1015.4 |
| 20260506020641 | -1 | 336 | 0.0 | 19.3 | 0.00 | 0.00 | 0.00 | 78 | 1015.4 |
| 20260506020141 | -1 | 336 | 0.0 | 19.3 | 0.00 | 0.00 | 0.00 | 78 | 1015.5 |
| 20260506015640 | -1 | 336 | 0.0 | 19.3 | 0.00 | 0.00 | 0.00 | 77 | 1015.2 |
| 20260506015139 | -1 | 336 | 0.0 | 19.3 | 0.00 | 0.00 | 0.00 | 76 | 1015.2 |
| 20260506014639 | -1 | 336 | 0.0 | 19.3 | 0.00 | 0.00 | 0.00 | 75 | 1015.2 |
| 20260506014138 | -1 | 336 | 0.0 | 19.3 | 0.00 | 0.00 | 0.00 | 75 | 1015.3 |
| 20260506013638 | -1 | 336 | 0.0 | 19.3 | 0.00 | 0.00 | 0.00 | 74 | 1014.9 |
| 20260506011550 | -1 | 336 | 0.0 | 19.3 | 0.00 | 0.00 | 0.00 | 71 | 1014.9 |
| 20260506011049 | -1 | 336 | 0.0 | 19.3 | 0.00 | 0.00 | 0.00 | 70 | 1014.9 |
| 20260506010549 | 0 | 336 | 0.0 | 19.3 | 0.00 | 0.00 | 0.00 | 69 | 1014.9 |
| 20260506010049 | 0 | 336 | 0.0 | 19.3 | 0.00 | 0.00 | 0.00 | 69 | 1014.8 |
| 20260506005548 | 0 | 336 | 0.0 | 19.3 | 0.00 | 0.00 | 0.00 | 69 | 1015.1 |
| 20260506005047 | 0 | 336 | 0.0 | 19.3 | 0.00 | 0.00 | 0.00 | 69 | 1015.1 |
| 20260506004547 | 0 | 336 | 0.0 | 19.3 | 0.00 | 0.00 | 0.00 | 68 | 1015.2 |
| 20260506004046 | 0 | 336 | 0.0 | 19.3 | 0.00 | 0.00 | 0.00 | 68 | 1014.8 |
| 20260506003031 | 0 | 336 | 0.0 | 19.3 | 0.00 | 0.00 | 0.00 | 68 | 1014.7 |
| 20260506002530 | 0 | 336 | 0.0 | 19.3 | 0.00 | 0.00 | 0.00 | 68 | 1014.9 |
| 20260506002029 | 0 | 336 | 0.0 | 19.3 | 0.00 | 0.00 | 0.00 | 66 | 1014.8 |
| 20260506001529 | 1 | 336 | 0.0 | 19.3 | 0.00 | 0.00 | 0.00 | 65 | 1015.0 |
| 20260506000513 | 1 | 336 | 0.0 | 19.3 | 0.00 | 0.00 | 0.00 | 65 | 1014.8 |
| 20260506000013 | 1 | 336 | 0.0 | 19.3 | 0.00 | 0.00 | 0.00 | 65 | 1014.9 |
| 20260505234957 | 1 | 336 | 0.0 | 19.3 | 0.00 | 0.00 | 0.00 | 64 | 1014.8 |
| 20260505234456 | 1 | 336 | 0.0 | 19.3 | 0.00 | 0.00 | 0.00 | 63 | 1014.8 |
| 20260505233441 | 1 | 336 | 0.0 | 19.3 | 0.00 | 0.00 | 0.00 | 63 | 1014.9 |
| 20260505232941 | 1 | 336 | 0.0 | 19.3 | 0.00 | 0.00 | 0.00 | 63 | 1014.8 |
| 20260505232441 | 1 | 336 | 0.0 | 19.3 | 0.00 | 0.00 | 0.00 | 63 | 1014.7 |
| 20260505231425 | 1 | 336 | 0.0 | 19.3 | 0.00 | 0.00 | 0.00 | 63 | 1014.7 |
| 20260505230410 | 2 | 336 | 0.0 | 19.3 | 0.00 | 0.00 | 0.00 | 64 | 1014.6 |
| 20260505225909 | 2 | 336 | 0.0 | 19.3 | 0.00 | 0.00 | 0.00 | 64 | 1014.5 |
| 20260505225409 | 2 | 336 | 0.0 | 19.3 | 0.00 | 0.00 | 0.00 | 63 | 1014.7 |
| 20260505224908 | 2 | 336 | 0.0 | 19.3 | 0.00 | 0.00 | 0.00 | 62 | 1014.8 |
| 20260505224408 | 2 | 336 | 0.0 | 19.3 | 0.00 | 0.00 | 0.00 | 62 | 1014.8 |
| 20260505223908 | 2 | 336 | 0.0 | 19.3 | 0.00 | 0.00 | 0.00 | 61 | 1014.6 |
| 20260505222852 | 3 | 336 | 0.0 | 19.3 | 0.00 | 0.00 | 0.00 | 60 | 1014.9 |
| 20260505222351 | 3 | 222 | 0.0 | 19.3 | 0.00 | 0.00 | 0.00 | 57 | 1014.6 |
| 20260505221851 | 3 | 222 | 0.0 | 19.3 | 0.00 | 0.00 | 0.00 | 53 | 1014.5 |
| 20260505221350 | 3 | 222 | 0.0 | 19.3 | 0.00 | 0.00 | 0.00 | 53 | 1014.4 |
| 20260505220850 | 3 | 222 | 0.0 | 19.3 | 0.00 | 0.00 | 0.00 | 53 | 1014.4 |
| 20260505215833 | 3 | 222 | 0.0 | 19.3 | 0.00 | 0.00 | 0.00 | 55 | 1014.4 |
| 20260505215333 | 3 | 222 | 0.0 | 19.3 | 0.00 | 0.00 | 0.00 | 56 | 1014.4 |
| 20260505214832 | 3 | 222 | 0.0 | 19.3 | 0.00 | 0.00 | 0.00 | 56 | 1014.2 |
| 20260505214332 | 3 | 222 | 0.0 | 19.3 | 0.00 | 0.00 | 0.00 | 56 | 1014.4 |
| 20260505213315 | 4 | 222 | 0.0 | 19.3 | 0.00 | 0.00 | 0.00 | 55 | 1014.3 |
| 20260505212814 | 4 | 222 | 0.0 | 19.3 | 0.00 | 0.00 | 0.00 | 56 | 1014.3 |
| 20260505212314 | 4 | 222 | 0.0 | 19.3 | 0.00 | 0.00 | 0.00 | 56 | 1014.0 |
| 20260505211814 | 4 | 222 | 0.0 | 19.3 | 0.00 | 0.00 | 0.00 | 55 | 1014.3 |
| 20260505211313 | 4 | 222 | 0.0 | 19.3 | 0.00 | 0.00 | 0.00 | 56 | 1014.6 |
| 20260505210257 | 4 | 222 | 0.0 | 19.3 | 0.00 | 0.00 | 0.00 | 56 | 1014.4 |
| 20260505205757 | 5 | 222 | 0.0 | 19.3 | 0.00 | 0.00 | 0.00 | 56 | 1014.3 |
| 20260505205256 | 5 | 222 | 0.0 | 19.3 | 0.00 | 0.00 | 0.00 | 55 | 1013.9 |
| 20260505204241 | 5 | 222 | 0.0 | 19.3 | 0.00 | 0.00 | 0.00 | 54 | 1014.0 |
| 20260505203225 | 5 | 222 | 0.0 | 19.3 | 0.00 | 0.00 | 0.00 | 53 | 1013.9 |
| 20260505202209 | 6 | 222 | 0.0 | 19.3 | 0.00 | 0.00 | 0.00 | 52 | 1013.9 |
| 20260505201709 | 6 | 222 | 0.0 | 19.3 | 0.00 | 0.00 | 0.00 | 51 | 1013.9 |
| 20260505201208 | 6 | 222 | 0.0 | 19.3 | 0.00 | 0.00 | 0.00 | 51 | 1013.7 |
| 20260505200708 | 6 | 222 | 0.0 | 19.3 | 0.00 | 0.00 | 0.00 | 50 | 1013.8 |
| 20260505200208 | 6 | 221 | 0.0 | 19.3 | 0.00 | 0.00 | 0.00 | 49 | 1013.7 |
| 20260505195708 | 7 | 221 | 0.0 | 19.3 | 0.00 | 0.00 | 0.00 | 48 | 1013.6 |
| 20260505195207 | 7 | 222 | 0.0 | 19.3 | 0.00 | 0.00 | 0.00 | 48 | 1013.7 |
| 20260505194707 | 7 | 217 | 0.0 | 19.3 | 0.00 | 0.00 | 0.00 | 47 | 1013.8 |
| 20260505194206 | 7 | 214 | 1.6 | 19.3 | 0.00 | 0.00 | 0.00 | 46 | 1013.4 |
| 20260505193705 | 7 | 212 | 1.6 | 19.3 | 0.00 | 0.00 | 0.00 | 46 | 1013.7 |
| 20260505192133 | 8 | 247 | 0.0 | 19.3 | 0.00 | 0.00 | 0.00 | 43 | 1013.7 |
| 20260505191117 | 8 | 247 | 0.0 | 19.3 | 0.00 | 0.00 | 0.00 | 42 | 1013.3 |
| 20260505190617 | 8 | 247 | 0.0 | 19.3 | 0.00 | 0.00 | 0.00 | 41 | 1013.3 |
| 20260505190117 | 8 | 247 | 0.0 | 19.3 | 0.00 | 0.00 | 0.00 | 39 | 1013.4 |
| 20260505185617 | 9 | 247 | 0.0 | 19.3 | 0.00 | 0.00 | 0.00 | 39 | 1013.3 |
| 20260505185116 | 9 | 247 | 0.0 | 19.3 | 0.00 | 0.00 | 0.00 | 38 | 1013.0 |
| 20260505184616 | 9 | 247 | 0.0 | 19.3 | 0.00 | 0.00 | 0.00 | 37 | 1013.0 |
| 20260505184116 | 10 | 247 | 0.0 | 19.3 | 0.00 | 0.00 | 0.00 | 36 | 1013.0 |
| 20260505183615 | 10 | 247 | 1.6 | 19.3 | 0.00 | 0.00 | 0.00 | 35 | 1013.3 |
| 20260505183115 | 10 | 240 | 0.0 | 19.3 | 0.00 | 0.00 | 0.00 | 34 | 1013.2 |
| 20260505182615 | 10 | 240 | 0.0 | 19.3 | 0.00 | 0.00 | 0.00 | 34 | 1012.8 |
| 20260505182114 | 10 | 245 | 0.0 | 19.3 | 0.00 | 0.00 | 0.00 | 33 | 1013.1 |
| 20260505181059 | 10 | 249 | 0.0 | 19.3 | 0.00 | 0.00 | 0.00 | 33 | 1012.7 |
| 20260505180559 | 10 | 249 | 0.0 | 19.3 | 0.00 | 0.00 | 0.00 | 33 | 1013.1 |
| 20260505180059 | 11 | 246 | 0.0 | 19.3 | 0.00 | 0.00 | 0.00 | 32 | 1012.8 |
| 20260505175043 | 11 | 208 | 0.0 | 19.3 | 0.00 | 0.00 | 0.00 | 31 | 1012.7 |
| 20260505174027 | 11 | 268 | 3.2 | 19.3 | 0.00 | 0.00 | 0.00 | 30 | 1012.6 |
| 20260505173526 | 11 | 223 | 1.6 | 19.3 | 0.00 | 0.00 | 0.00 | 31 | 1012.7 |
| 20260505173025 | 12 | 228 | 1.6 | 19.3 | 0.00 | 0.00 | 0.00 | 30 | 1012.6 |
| 20260505172524 | 12 | 239 | 0.0 | 19.3 | 0.00 | 0.00 | 0.00 | 31 | 1012.5 |
| 20260505172024 | 12 | 237 | 0.0 | 19.3 | 0.00 | 0.00 | 0.00 | 30 | 1012.5 |
| 20260505171009 | 12 | 237 | 1.6 | 19.3 | 0.00 | 0.00 | 0.00 | 29 | 1012.4 |
| 20260505170508 | 12 | 257 | 3.2 | 19.3 | 0.00 | 0.00 | 0.00 | 29 | 1012.4 |
| 20260505170007 | 12 | 232 | 4.8 | 19.3 | 0.00 | 0.00 | 0.00 | 28 | 1012.4 |